Content
SEND FEEDBACK

Daily
Averages
Monthly
Summary
United States of America

LUNENBURG, MASSACHUSETTS


Home > North America > United States > Massachusetts
Elevation: 400 feet     Latitude: 42 34N     Longitude: 071 46W

WEATHER
 
SELECT A DAY
Number of Records: 181,277;   Date Range: 9/17/97 - 7/22/14
 
SHARE

PRINT THIS DATA

[ ← Previous Day ]
WEATHER ALMANAC - JANUARY 31, 2013
[ Next Day → ]
[ °C ]   °F
Weather ElementAverageHighLow
Temperature46.6 °F60.8 °F (1:04 am)28.9 °F (10:52 pm)
Dewpoint35.7 °F57 °F (3:52 am)12 °F (8:52 pm)
Humidity67.8 %90 % (1:52 am)34 % (2:52 pm)
Barometer29.23 in29.60 in (11:52 pm)28.97 in (7:52 am)
Wind Speed17.4 mph28.8 mph (8:52 am)
Wind Gust46 mph (8:52 am)
Weather ElementAverage
Visibility8 mi
Wind DirectionWSW (247.3 °)

Weather ElementTotal
Precipitation1.10 in
Heating Degree Days20.2 (Base 65)
Averaged from 30 records on January 31, 2013
WEATHER CONDITIONS BREAKOUT
WIND DIRECTION BREAKOUT
WEATHER BY HOUR - JANUARY 31, 2013
[ °C ]   °F
Local TimeTemperatureDewpointHumidityBarometerVisibilityWind DirectionWind SpeedGust SpeedPrecipitationEventsConditions
1:04 AM60.8 °F55.4 °F82 %29.34 in10.0 miSouth (180°)15.0 mph23.0 mphOvercast
1:52 AM59.0 °F55.9 °F90 %29.30 in8.0 miSouth (170°)16.1 mph25.3 mph0.03 inRainRain
2:52 AM60.1 °F55.9 °F86 %29.22 in7.0 miSouth (180°)17.3 mph32.2 mph0.03 inRainLight Rain
3:52 AM60.1 °F57.0 °F90 %29.14 in9.0 miSouth (180°)18.4 mph29.9 mph0.06 inRainLight Rain
4:52 AM60.1 °F57.0 °F90 %29.08 in8.0 miSouth (170°)20.7 mph28.8 mph0.04 inRainRain
5:52 AM60.1 °F57.0 °F90 %29.00 in5.0 miSouth (190°)13.8 mph39.1 mph0.27 inRainRain
6:31 AM60.8 °F55.4 °F82 %29.02 in7.0 miSSW (200°)17.3 mph29.9 mph0.12 inRainRain
6:52 AM60.1 °F55.9 °F86 %29.02 in5.0 miSSW (210°)13.8 mph27.6 mph0.17 inRainRain
7:52 AM57.9 °F53.1 °F84 %28.97 in10.0 miSouth (190°)11.5 mph20.7 mph0.01 inScattered Clouds
8:44 AM59.0 °F51.8 °F77 %28.97 in10.0 miSouth (190°)18.4 mph32.2 mphOvercast
8:52 AM53.1 °F46.0 °F77 %29.01 in2.5 miWest (270°)28.8 mph46.0 mph0.03 inRainLight Rain
8:55 AM48.2 °F42.8 °F82 %29.01 in1.5 miWest (270°)18.4 mph46.0 mph0.02 inRainHeavy Rain
9:07 AM46.4 °F42.8 °F87 %29.04 in2.5 miWest (280°)21.9 mph38.0 mph0.06 inRainHeavy Rain
9:17 AM44.6 °F39.2 °F81 %29.05 in3.0 miWNW (290°)17.3 mph32.2 mph0.08 inRainRain
9:28 AM44.6 °F39.2 °F81 %29.05 in6.0 miWest (280°)21.9 mph38.0 mph0.08 inRainLight Rain
9:52 AM42.1 °F36.0 °F79 %29.08 in5.0 miWest (280°)18.4 mph40.3 mph0.10 inRainLight Rain
10:52 AM45.0 °F32.0 °F60 %29.14 in10.0 miWest (280°)27.6 mph44.9 mph0.00 inPartly Cloudy
11:52 AM44.1 °F28.9 °F55 %29.20 in10.0 miWest (280°)23.0 mph39.1 mphMostly Cloudy
12:52 PM44.1 °F27.0 °F51 %29.21 in10.0 miWNW (300°)16.1 mph28.8 mphMostly Cloudy
1:52 PM42.1 °F18.0 °F38 %29.26 in10.0 miWest (270°)28.8 mph43.7 mphPartly Cloudy
2:52 PM43.0 °F16.0 °F34 %29.31 in10.0 miWest (260°)17.3 mph29.9 mphScattered Clouds
3:52 PM39.9 °F18.0 °F41 %29.35 in10.0 miWNW (290°)16.1 mph23.0 mphOvercast
4:52 PM39.0 °F16.0 °F39 %29.38 in10.0 miWest (270°)10.4 mph29.9 mphScattered Clouds
5:52 PM36.0 °F18.0 °F48 %29.43 in10.0 miWest (280°)9.2 mphPartly Cloudy
6:52 PM34.0 °F19.0 °F54 %29.47 in10.0 miWest (280°)9.2 mph21.9 mph0.00 inClear
7:52 PM32.0 °F19.9 °F61 %29.51 in9.0 miWest (270°)10.4 mph17.3 mph0.00 inScattered Clouds
8:52 PM32.0 °F12.0 °F44 %29.53 in10.0 miWest (280°)16.1 mph28.8 mphClear
9:52 PM30.9 °F15.1 °F52 %29.57 in10.0 miWNW (290°)17.3 mph25.3 mphScattered Clouds
10:52 PM28.9 °F16.0 °F58 %29.58 in10.0 miWest (270°)15.0 mph26.5 mph0.00 inClear
11:52 PM28.9 °F15.1 °F56 %29.60 in10.0 miWest (270°)17.3 mph24.2 mphMostly Cloudy
Hourly data recorded from KFIT, located miles away from Lunenburg, Massachusetts







STORIES FROM OUR PARTNERS